Location: Oberwangen
(47.4286°N, 8.9679°E)
Time: 13:11:59
(UTC+00:00)

Lacrosse 4 Rocket - Pass Details

Date: 20 June 2021
Orbit: 543 x 614 km, 68.0° (Epoch: 02 August)

Event Time Altitude Azimuth Distance (km) Brightness Sun altitude
Rises 23:34:52 0° 336° (NNW) 2,757 6.0 -19.1°
Reaches altitude 10° 23:37:41 10° 356° (N) 1,845 5.2 -19.1°
Maximum altitude 23:40:35 18° 41° (NE) 1,379 4.0 -19.1°
Drops below altitude 10° 23:43:27 10° 86° (E) 1,819 4.1 -19.0°
Sets 23:46:12 0° 105° (ESE) 2,703 4.7 -19.0°
